Weather History for San Sebastian, Spain

Change the Weather History Date:

Tuesday, September 10, 2013

  Actual Average Record
Temperature  
Mean Temperature 66 °F -  
Max Temperature 68 °F 71 °F 87 °F (2000)
Min Temperature 64 °F 58 °F 55 °F (1996)
Cooling Degree Days 1    
Growing Degree Days 16 (Base 50)    
Moisture  
Dew Point 60 °F    
Average Humidity 84    
Maximum Humidity 100    
Minimum Humidity 64    
Precipitation  
Precipitation 0.00 in - - ()
Sea Level Pressure  
Sea Level Pressure 30.20 in    
Wind  
Wind Speed 5 mph ()    
Max Wind Speed 10 mph    
Max Gust Speed 23 mph    
Visibility 5.0 miles    
Events Rain    
Averages and records for this station are not official NWS values.
T = Trace of Precipitation, MM = Missing Value Source: Averaged Metar Reports

Daily Weather History Graph

Daily Weather History Graph

Search for Another Location

Airport:

Trip Planner

Search our weather history database for the weather conditions in past years. The results will help you decide how hot, cold, wet, or windy it might be!

Date:

Astronomy

Sep. 10, 2013 Rise Set
Actual Time 7:41 AM CEST 8:26 PM CEST
Civil Twilight 7:12 AM CEST 8:55 PM CEST
Nautical Twilight 6:37 AM CEST 9:29 PM CEST
Astronomical Twilight 6:02 AM CEST 10:04 PM CEST
Moon 1:01 PM CEST (9/10) 11:07 PM CEST (9/10)
Length of Visible Light 13h 42m
Length of Day
12h 45m
Waxing Crescent, 25% of the Moon is Illuminated
Sep 10
Waxing Crescent
Sep 12
First Quarter
Sep 19
Full
Sep 27
Last Quarter
Oct 5
New

Hourly Weather History & Observations

Time (CEST) Temp. Dew Point Humidity Pressure Visibility Wind Dir Wind Speed Gust Speed Precip Events Conditions
5:30 AM 64.4 °F 60.8 °F 88% 30.18 in 6.2 mi SSW 5.8 mph - N/A   Light Drizzle
6:00 AM 64.4 °F 60.8 °F 88% 30.15 in 6.2 mi SSW 8.1 mph - N/A   Mostly Cloudy
6:30 AM 66.2 °F 60.8 °F 83% 30.15 in 6.2 mi SSW 9.2 mph - N/A   Mostly Cloudy
7:00 AM 66.2 °F 62.6 °F 88% 30.15 in 1.2 mi SW 10.4 mph 23.0 mph N/A Rain Heavy Rain
7:03 AM 66.2 °F 62.6 °F 88% 30.18 in 3.1 mi Variable 8.1 mph - N/A Rain Rain
7:22 AM 66.2 °F 62.6 °F 88% 30.18 in 1.2 mi North 6.9 mph - N/A Rain Heavy Rain
7:30 AM 66.2 °F 64.4 °F 94% 30.18 in 1.2 mi Variable 8.1 mph - N/A Rain Heavy Rain
8:00 AM 64.4 °F 64.4 °F 100% 30.18 in 1.2 mi North 5.8 mph - N/A Rain Heavy Rain
8:22 AM 64.4 °F 62.6 °F 94% 30.18 in 4.3 mi North 3.5 mph - N/A Rain Light Rain
8:30 AM 64.4 °F 62.6 °F 94% 30.18 in 3.7 mi North 3.5 mph - N/A Rain Light Rain
9:00 AM 64.4 °F 62.6 °F 94% 30.18 in 3.7 mi Calm Calm - N/A Rain Light Rain
9:30 AM 64.4 °F 62.6 °F 94% 30.18 in 2.5 mi Calm Calm - N/A   Light Drizzle
10:00 AM 64.4 °F 62.6 °F 94% 30.18 in 2.5 mi North 3.5 mph - N/A Rain Light Rain
10:30 AM 64.4 °F 62.6 °F 94% 30.21 in 2.5 mi NNW 3.5 mph - N/A Rain Light Rain
11:00 AM 64.4 °F 62.6 °F 94% 30.21 in 6.2 mi Variable 1.2 mph - N/A   Mostly Cloudy
11:30 AM 64.4 °F 62.6 °F 94% 30.21 in 6.2 mi Calm Calm - N/A   Mostly Cloudy
12:00 PM 64.4 °F 62.6 °F 94% 30.21 in 6.2 mi Variable 1.2 mph - N/A   Mostly Cloudy
12:30 PM 66.2 °F 62.6 °F 88% 30.21 in 6.2 mi Variable 1.2 mph - N/A   Mostly Cloudy
1:00 PM 68.0 °F 60.8 °F 78% 30.21 in 6.2 mi Variable 1.2 mph - N/A   Mostly Cloudy
1:30 PM 68.0 °F 60.8 °F 78% 30.21 in 6.2 mi SSW 4.6 mph - N/A   Mostly Cloudy
2:00 PM 68.0 °F 59.0 °F 73% 30.21 in 6.2 mi Variable 1.2 mph - N/A   Mostly Cloudy
2:30 PM 64.4 °F 60.8 °F 88% 30.21 in 3.7 mi NNW 4.6 mph - N/A Rain Light Rain
3:00 PM 64.4 °F 60.8 °F 88% 30.21 in 6.2 mi NNW 3.5 mph - N/A   Mostly Cloudy
3:30 PM 66.2 °F 59.0 °F 78% 30.21 in 6.2 mi Variable 3.5 mph - N/A   Mostly Cloudy
4:00 PM 66.2 °F 59.0 °F 78% 30.21 in 6.2 mi Variable 1.2 mph - N/A   Mostly Cloudy
4:30 PM 66.2 °F 60.8 °F 83% 30.21 in 6.2 mi Variable 1.2 mph - N/A   Mostly Cloudy
5:00 PM 66.2 °F 60.8 °F 83% 30.21 in 6.2 mi Variable 2.3 mph - N/A   Mostly Cloudy
5:30 PM 66.2 °F 60.8 °F 83% 30.21 in 6.2 mi Variable 2.3 mph - N/A   Mostly Cloudy
6:00 PM 66.2 °F 57.2 °F 73% 30.21 in 6.2 mi NNW 6.9 mph - N/A   Mostly Cloudy
6:30 PM 66.2 °F 55.4 °F 68% 30.21 in 6.2 mi NNW 6.9 mph - N/A   Mostly Cloudy
7:00 PM 66.2 °F 55.4 °F 68% 30.21 in 6.2 mi NNW 6.9 mph - N/A   Mostly Cloudy
7:30 PM 64.4 °F 57.2 °F 77% 30.21 in 6.2 mi North 6.9 mph - N/A   Mostly Cloudy
8:00 PM 64.4 °F 55.4 °F 73% 30.24 in 6.2 mi NNW 5.8 mph - N/A   Mostly Cloudy
8:30 PM 64.4 °F 55.4 °F 73% 30.24 in 6.2 mi North 9.2 mph - N/A   Mostly Cloudy
9:00 PM 64.4 °F 53.6 °F 68% 30.24 in 6.2 mi NNW 6.9 mph - N/A   Mostly Cloudy
9:30 PM 64.4 °F 51.8 °F 64% 30.24 in 6.2 mi NNW 5.8 mph - N/A   Mostly Cloudy